Grand Marais, MN

11:10 PM CST on November 19, 2019 (GMT -0600)
Grand Marais

Weather History for KGNA - September, 2019

Change the Weather History Date:

Wednesday, September 11, 2019

  Actual Average (KCKC) Record (KCKC)
Temperature  
Mean Temperature 50 °F -  
Max Temperature 53 °F 63 °F 84 °F (1998)
Min Temperature 48 °F 45 °F 32 °F (1997)
Degree Days  
Heating Degree Days 15    
Moisture  
Dew Point 47 °F    
Average Humidity 90    
Maximum Humidity 100    
Minimum Humidity 80    
Precipitation  
Precipitation 0.00 in - - ()
Sea Level Pressure  
Sea Level Pressure 30.25 in    
Wind  
Wind Speed 10 mph (ENE)    
Max Wind Speed 17 mph    
Max Gust Speed 24 mph    
Averages and records for this station are not official NWS values.
T = Trace of Precipitation, MM = Missing Value Source: NWS Daily Summary

Daily Weather History Graph

Daily Weather History Graph

Search for Another Location

Airport or City:

Astronomy

Sep. 11, 2019 Rise Set
Actual Time 6:32 AM CDT 7:22 PM CDT
Civil Twilight 6:01 AM CDT 7:53 PM CDT
Nautical Twilight 5:24 AM CDT 8:30 PM CDT
Astronomical Twilight 4:44 AM CDT 9:09 PM CDT
Moon 6:47 PM CDT (9/11) 3:39 AM CDT (9/11)
Length of Visible Light 13h 51m
Length of Day
12h 49m
Waxing Gibbous, 95% of the Moon is Illuminated
Sep 11
Waxing Gibbous
Sep 13
Full
Sep 21
Last Quarter
Sep 28
New
Oct 5
First Quarter

Hourly Weather History & Observations

Time (CDT) Temp. Dew Point Humidity Pressure Visibility Wind Dir Wind Speed Gust Speed Precip Events Conditions
12:56 AM 50.0 °F 50.0 °F 100% 30.14 in - ENE 10.4 mph - N/A   Unknown
1:56 AM 50.0 °F 48.9 °F 96% 30.16 in - ENE 9.2 mph - N/A   Unknown
2:56 AM 50.0 °F 48.9 °F 96% 30.18 in - ENE 6.9 mph - N/A   Unknown
3:56 AM 50.0 °F 48.9 °F 96% 30.19 in - ENE 8.1 mph - N/A   Unknown
4:56 AM 50.0 °F 48.9 °F 96% 30.19 in - ENE 10.4 mph - N/A   Unknown
5:56 AM 50.0 °F 48.0 °F 93% 30.21 in - ENE 11.5 mph - N/A   Unknown
6:56 AM 48.9 °F 48.0 °F 97% 30.23 in - East 5.8 mph - N/A   Unknown
7:56 AM 48.9 °F 48.0 °F 97% 30.27 in - ENE 5.8 mph - N/A   Unknown
8:56 AM 48.9 °F 48.0 °F 97% 30.27 in - ENE 6.9 mph - N/A   Unknown
9:56 AM 48.9 °F 46.9 °F 93% 30.27 in - ENE 12.7 mph - N/A   Unknown
10:56 AM 50.0 °F 46.9 °F 89% 30.27 in - ENE 15.0 mph 18.4 mph N/A   Unknown
11:56 AM 48.9 °F 46.0 °F 90% 30.26 in - ENE 12.7 mph 24.2 mph N/A   Unknown
12:56 PM 48.9 °F 46.0 °F 90% 30.25 in - ENE 15.0 mph 21.9 mph N/A   Unknown
1:56 PM 50.0 °F 46.0 °F 86% 30.25 in - East 15.0 mph - N/A   Unknown
2:56 PM 50.0 °F 46.0 °F 86% 30.27 in - East 17.3 mph - N/A   Unknown
3:56 PM 50.0 °F 46.9 °F 89% 30.28 in - ENE 9.2 mph - N/A   Unknown
4:56 PM 52.0 °F 46.0 °F 80% 30.26 in - NE 10.4 mph - N/A   Unknown
5:56 PM 50.0 °F 46.9 °F 89% 30.28 in - ENE 8.1 mph - N/A   Unknown
6:56 PM 50.0 °F 46.0 °F 86% 30.29 in - ENE 5.8 mph - N/A   Unknown
7:56 PM 48.9 °F 46.0 °F 90% 30.30 in - NE 3.5 mph - N/A   Unknown
8:56 PM 51.1 °F 46.9 °F 86% 30.30 in - NE 6.9 mph - N/A   Unknown
9:56 PM 51.1 °F 46.0 °F 83% 30.31 in - NE 9.2 mph - N/A   Unknown
10:56 PM 51.1 °F 46.0 °F 83% 30.31 in - NE 8.1 mph - N/A   Unknown
11:56 PM 52.0 °F 46.0 °F 80% 30.30 in - NE 11.5 mph - N/A   Unknown